Flag for Germany Weather past 2 weeks in Sonneberg, Thuringia, Germany

Now
66 °F

Scattered clouds.


Feels Like: 66 °F
Forecast: 35 / 44 °F
Wind: 2 mph from Southwest

Location: Hof

Current Time: Apr 27, 2015 at 1:32:54 PM

Latest Report: Apr 27, 2015 at 1:00 PM


Visibility: 31 mi

Pressure: 29.53 "Hg

Humidity: 54%

Dew point: 49 °F

Location of SonnebergLocation

Historic Weather in Sonneberg — Graph

°F

Sonneberg temperature yesterday

Maximum temperature yesterday: 63 °F (at 4:00 PM)
Minimum temperature yesterday: 50 °F (at 6:00 AM)
Average temperature yesterday: 55 °F

Past Weeks' High & Low Weather Summary

 TemperatureHumidityPressure
High69 °F (Apr 15, 6:00 PM)100% (Apr 23, 2:00 AM)30.48 "Hg (Apr 23, 2:00 AM)
Low27 °F (Apr 19, 6:00 AM)25% (Apr 21, 6:00 PM)29.55 "Hg (Apr 27, 12:00 PM)
Average48 °F67%30.11 "Hg
* Reported Apr 12 12:00 Noon — Apr 27 12:00 Noon, Sonneberg, Weather by CustomWeather, © 2015

Note: Actual official high and low records may vary slightly from our data, if they occured in-between our weather recording intervals... More about our weather records

Advertising

Sonneberg weather history for previous 24 hours

 ConditionsComfort  
Time TempWeatherWind HumidityBarometerVisibility
12:00 PM
Mon, Apr 27
64 °FScattered clouds.2 mph60%29.55 "Hg31 mi
10:00 AM61 °FOvercast.2 mph66%29.56 "Hg31 mi
9:00 AM57 °FPartly sunny.2 mph76%29.58 "Hg25 mi
8:00 AM53 °FPartly sunny.1 mph84%29.60 "Hg22 mi
7:00 AM52 °FPartly sunny.3 mph84%29.59 "Hg22 mi
6:00 AM52 °FOvercast.5 mph83%29.59 "Hg25 mi
4:00 AM49 °FOvercast.2 mph96%29.64 "Hg12 mi
3:00 AM47 °FOvercast.2 mph100%29.67 "Hg6 mi
2:00 AM48 °FPassing clouds.2 mph99%29.68 "Hg12 mi
1:00 AM48 °FClear.1 mph100%29.69 "Hg3 mi
12:00 AM50 °FOvercast.2 mph99%29.70 "Hg11 mi
10:00 PM
Sun, Apr 26
54 °FOvercast.1 mph95%29.70 "Hg17 mi
9:00 PM56 °FSprinkles. Overcast.3 mph78%29.71 "Hg28 mi
8:00 PM59 °FOvercast.1 mph68%29.68 "Hg47 mi
7:00 PM62 °FPartly sunny.2 mph57%29.69 "Hg47 mi
6:00 PM63 °FPartly sunny.3 mph56%29.69 "Hg47 mi
4:00 PM63 °FPartly sunny.3 mph59%29.70 "Hg47 mi
3:00 PM61 °FPartly sunny.6 mph67%29.74 "Hg31 mi
2:00 PM59 °FPartly sunny.5 mph74%29.76 "Hg43 mi
1:00 PM58 °FOvercast.3 mph75%29.78 "Hg28 mi
Weather by CustomWeather, © 2015

See weather overviewHow to use our weather pages